MOLNIYA 2-14

Last updated on Oct. 29, 2020, 5:52 a.m. UTC

1 08195U 75081A   20301.89105769 -.00001386  00000-0  36138-2 0  9997
2 08195  63.2115 260.0229 7199832 293.6756   9.0822  2.02105159330834
UTC
Height (km)
Latitude
Longitude
Inclination
Orbital Period
UTC large
Height (km)
Speed (km/s)
/
Latitude / Longitude
Inclination (degrees)
Orbital Period (minutes)
Azimuth
Elevation
Range (km)
Doppler Factor
iOS Compass Heading
iOS Angle

Next 30 passes for location: Hong Kong

Rise time Rise Azimuth (degrees) Set time Set Azimuth (degrees) Duration Max altitude (degrees)

No matching passes for this satellites